This is the latest recevied weather packets stored in our database for station/object XE2AD-5. If no packets are shown the sender has not sent any weather packets the latest 1 day(s).
| Time | Temp. | Humidity | Pressure | Rain* | Wind** | Luminosity | Snow |
|---|---|---|---|---|---|---|---|
| 1777870871 | 28.33° C | 17% | 808.3 hPa | - | - | - | - |
| 1777867541 | 28.89° C | 17% | 808.4 hPa | - | - | - | - |
| 1777864241 | 28.89° C | 18% | 807.8 hPa | - | - | - | - |
| 1777860941 | 30° C | 21% | 806.4 hPa | - | - | - | - |
| 1777857641 | 29.44° C | 21% | 805.6 hPa | - | - | - | - |
| 1777854340 | 28.89° C | 19% | 805.3 hPa | - | - | - | - |
| 1777851040 | 28.89° C | 20% | 805.1 hPa | - | - | - | - |
| 1777847740 | 28.33° C | 21% | 805.5 hPa | - | - | - | - |
| 1777844440 | 28.33° C | 23% | 805.7 hPa | - | - | - | - |
| 1777841140 | 27.78° C | 23% | 806.7 hPa | - | - | - | - |
| 1777837840 | 27.22° C | 26% | 807.7 hPa | - | - | - | - |
| 1777834539 | 26.67° C | 27% | 808.7 hPa | - | - | - | - |
| 1777831239 | 26.11° C | 27% | 809.4 hPa | - | - | - | - |
| 1777827939 | 26.11° C | 29% | 809.9 hPa | - | - | - | - |
| 1777824639 | 25.56° C | 29% | 810.1 hPa | - | - | - | - |
| 1777821339 | 25.56° C | 30% | 810.2 hPa | - | - | - | - |
| 1777818038 | 26.11° C | 29% | 809.9 hPa | - | - | - | - |
| 1777814738 | 26.11° C | 29% | 809.3 hPa | - | - | - | - |
| 1777811438 | 26.67° C | 27% | 808.6 hPa | - | - | - | - |
| 1777808137 | 26.67° C | 27% | 808.1 hPa | - | - | - | - |
| 1777804837 | 27.22° C | 26% | 807.9 hPa | - | - | - | - |
| 1777801536 | 27.78° C | 24% | 807.9 hPa | - | - | - | - |
| 1777798236 | 27.78° C | 21% | 807.5 hPa | - | - | - | - |
| 1777794936 | 28.33° C | 20% | 807.5 hPa | - | - | - | - |
| 1777791636 | 28.33° C | 19% | 807.7 hPa | - | - | - | - |
* Rain since midnight (hover to see other rain measurements)
** Current wind speed in m/s (hover to see current wind gust speed)